| time (UTC) | temp F | wind direction | speed MPH | gust MPH | rain 1hr in | rain 24hr in | rain mn in | humidity % | barometer mb |
| 20260505014515 | 60 | 319 | 3.0 | 11.0 | 0.04 | 0.10 | 0.10 | 68 | 1007.9 |
| 20260505013006 | 61 | 309 | 3.0 | 10.0 | 0.04 | 0.09 | 0.09 | 68 | 1007.2 |
| 20260505011503 | 61 | 319 | 2.0 | 5.0 | 0.05 | 0.08 | 0.08 | 63 | 1006.7 |
| 20260505010006 | 62 | 319 | 2.0 | 4.0 | 0.04 | 0.07 | 0.07 | 64 | 1006.7 |
| 20260505004600 | 62 | 315 | 2.0 | 8.0 | 0.03 | 0.06 | 0.06 | 62 | 1006.8 |
| 20260505003114 | 63 | 327 | 4.0 | 9.0 | 0.04 | 0.05 | 0.05 | 62 | 1006.7 |
| 20260505001558 | 64 | 314 | 3.0 | 9.0 | 0.03 | 0.03 | 0.03 | 57 | 1006.2 |
| 20260504234555 | 63 | 322 | 3.0 | 13.0 | 0.03 | 0.03 | 0.03 | 61 | 1005.9 |
| 20260504233055 | 68 | 335 | 8.0 | 16.0 | 0.00 | 0.00 | 0.00 | 46 | 1006.6 |
| 20260504231550 | 74 | 319 | 9.0 | 24.0 | 0.00 | 0.00 | 0.00 | 28 | 1006.0 |
| 20260504230108 | 75 | 328 | 10.0 | 16.0 | 0.00 | 0.00 | 0.00 | 25 | 1005.7 |
| 20260504224600 | 76 | 321 | 8.0 | 14.0 | 0.00 | 0.00 | 0.00 | 22 | 1005.5 |
| 20260504223047 | 77 | 310 | 5.0 | 16.0 | 0.00 | 0.00 | 0.00 | 21 | 1005.6 |
| 20260504221546 | 78 | 301 | 10.0 | 16.0 | 0.00 | 0.00 | 0.00 | 20 | 1005.4 |
| 20260504220052 | 79 | 349 | 8.0 | 17.0 | 0.00 | 0.00 | 0.00 | 20 | 1005.6 |
| 20260504214546 | 79 | 335 | 7.0 | 14.0 | 0.00 | 0.00 | 0.00 | 19 | 1005.2 |
| 20260504213043 | 80 | 340 | 6.0 | 12.0 | 0.00 | 0.00 | 0.00 | 18 | 1005.0 |
| 20260504211543 | 80 | 339 | 6.0 | 12.0 | 0.00 | 0.00 | 0.00 | 18 | 1005.3 |
| 20260504210055 | 80 | 275 | 2.0 | 8.0 | 0.00 | 0.00 | 0.00 | 20 | 1005.5 |
| 20260504204547 | 79 | 312 | 6.0 | 12.0 | 0.00 | 0.00 | 0.00 | 19 | 1005.7 |
| 20260504203043 | 80 | 280 | 1.0 | 8.0 | 0.00 | 0.00 | 0.00 | 20 | 1005.7 |
| 20260504201541 | 80 | 324 | 0.0 | 4.0 | 0.00 | 0.00 | 0.00 | 21 | 1006.0 |
| 20260504200049 | 79 | 293 | 2.0 | 8.0 | 0.00 | 0.00 | 0.00 | 22 | 1005.9 |
| 20260504194535 | 79 | 333 | 4.0 | 9.0 | 0.00 | 0.00 | 0.00 | 22 | 1005.8 |
| 20260504193032 | 78 | 321 | 0.0 | 5.0 | 0.00 | 0.00 | 0.00 | 24 | 1005.9 |
| 20260504191530 | 77 | 260 | 3.0 | 7.0 | 0.00 | 0.00 | 0.00 | 24 | 1006.0 |
| 20260504190029 | 77 | 321 | 1.0 | 5.0 | 0.00 | 0.00 | 0.00 | 24 | 1006.2 |
| 20260504184535 | 77 | 321 | 2.0 | 8.0 | 0.00 | 0.00 | 0.00 | 24 | 1006.4 |
| 20260504183034 | 76 | 295 | 2.0 | 6.0 | 0.00 | 0.00 | 0.00 | 24 | 1006.7 |
| 20260504181526 | 77 | 238 | 3.0 | 6.0 | 0.00 | 0.00 | 0.00 | 24 | 1006.9 |
| 20260504180026 | 76 | 321 | 0.0 | 5.0 | 0.00 | 0.00 | 0.00 | 24 | 1006.8 |
| 20260504174523 | 76 | 323 | 3.0 | 8.0 | 0.00 | 0.00 | 0.00 | 25 | 1007.1 |
| 20260504173022 | 76 | 238 | 2.0 | 6.0 | 0.00 | 0.00 | 0.00 | 26 | 1006.8 |
| 20260504171522 | 76 | 273 | 1.0 | 8.0 | 0.00 | 0.00 | 0.00 | 26 | 1007.0 |
| 20260504120112 | 68 | 329 | 1.0 | 3.0 | 0.00 | 0.00 | 0.00 | 35 | 1005.5 |
| 20260504081533 | 71 | 327 | 2.0 | 4.0 | 0.00 | 0.00 | 0.00 | 32 | 1004.9 |
| 20260504050015 | 73 | 326 | 3.0 | 6.0 | 0.00 | 0.00 | 0.00 | 27 | 1005.8 |
| 20260504044518 | 73 | 322 | 4.0 | 7.0 | 0.00 | 0.00 | 0.00 | 25 | 1005.9 |
| 20260504043016 | 74 | 332 | 2.0 | 10.0 | 0.00 | 0.00 | 0.00 | 25 | 1005.7 |
| 20260504041513 | 74 | 314 | 4.0 | 7.0 | 0.00 | 0.00 | 0.00 | 24 | 1005.6 |
| 20260504040015 | 75 | 316 | 3.0 | 7.0 | 0.00 | 0.00 | 0.00 | 23 | 1005.2 |
| 20260504034512 | 75 | 328 | 4.0 | 9.0 | 0.00 | 0.00 | 0.00 | 22 | 1004.8 |
| 20260504033013 | 76 | 317 | 3.0 | 9.0 | 0.00 | 0.00 | 0.00 | 20 | 1004.5 |
| 20260504031513 | 77 | 320 | 3.0 | 8.0 | 0.00 | 0.00 | 0.00 | 19 | 1004.3 |
| 20260504030010 | 77 | 350 | 3.0 | 8.0 | 0.00 | 0.00 | 0.00 | 18 | 1003.9 |
| 20260504024609 | 78 | 311 | 3.0 | 7.0 | 0.00 | 0.00 | 0.00 | 17 | 1003.6 |
| 20260504023010 | 79 | 323 | 3.0 | 9.0 | 0.00 | 0.00 | 0.00 | 16 | 1003.1 |
| 20260504021511 | 80 | 334 | 3.0 | 8.0 | 0.00 | 0.00 | 0.00 | 14 | 1002.8 |
| 20260504020007 | 81 | 290 | 2.0 | 10.0 | 0.00 | 0.00 | 0.00 | 13 | 1002.7 |